Location: Dob?e?
(49.9411°N, 15.1496°E)
Time: 19:20:14
(UTC+00:00)

Cosmos 1980 Rocket - Pass Details

Date: 07 June 2020
Orbit: 828 x 851 km, 71.0° (Epoch: 10 July)

Event Time Altitude Azimuth Distance (km) Brightness Sun altitude
Exits shadow 00:51:44 15° 232° (SW) 2,096 3.7 -13.1°
Maximum altitude 00:56:14 53° 306° (NW) 1,031 2.7 -12.7°
Drops below altitude 10° 01:01:47 10° 23° (NNE) 2,474 6.1 -12.3°
Sets 01:04:19 0° 28° (NNE) 3,417 7.5 -12.1°
